| time (UTC) | temp F | wind direction | speed MPH | gust MPH | rain 1hr in | rain 24hr in | rain mn in | humidity % | barometer mb |
| 20260831103144 | 57 | 170 | 0.0 | 0.0 | 0.00 | 0.05 | 0.05 | 97 | 1026.8 |
| 20260831102643 | 57 | 140 | 0.0 | 0.0 | 0.00 | 0.05 | 0.05 | 97 | 1026.5 |
| 20260831102138 | 57 | 139 | 0.0 | 0.0 | 0.00 | 0.05 | 0.05 | 97 | 1026.4 |
| 20260831101633 | 57 | 139 | 0.0 | 0.0 | 0.00 | 0.05 | 0.05 | 97 | 1026.5 |
| 20260831101129 | 57 | 134 | 0.0 | 0.0 | 0.00 | 0.05 | 0.05 | 97 | 1026.5 |
| 20260831100625 | 57 | 164 | 0.0 | 0.0 | 0.00 | 0.05 | 0.05 | 97 | 1026.4 |
| 20260831100121 | 57 | 143 | 0.0 | 0.0 | 0.00 | 0.05 | 0.05 | 96 | 1026.4 |
| 20260831095619 | 57 | 112 | 0.0 | 1.0 | 0.00 | 0.05 | 0.05 | 96 | 1026.4 |
| 20260831095114 | 57 | 155 | 0.0 | 0.0 | 0.00 | 0.05 | 0.05 | 96 | 1026.3 |
| 20260831094610 | 57 | 136 | 0.0 | 0.0 | 0.00 | 0.05 | 0.05 | 96 | 1026.4 |
| 20260831094106 | 57 | 104 | 0.0 | 0.0 | 0.00 | 0.05 | 0.05 | 94 | 1026.3 |
| 20260831093601 | 57 | 142 | 0.0 | 0.0 | 0.00 | 0.05 | 0.05 | 91 | 1026.5 |
| 20260831093057 | 56 | 239 | 1.0 | 1.0 | 0.00 | 0.05 | 0.05 | 97 | 1026.4 |
| 20260831092553 | 56 | 146 | 0.0 | 0.0 | 0.00 | 0.05 | 0.05 | 97 | 1026.8 |
| 20260831092048 | 57 | 146 | 0.0 | 0.0 | 0.00 | 0.05 | 0.05 | 97 | 1026.8 |
| 20260831091548 | 56 | 136 | 0.0 | 0.0 | 0.00 | 0.05 | 0.05 | 97 | 1026.9 |
| 20260831091043 | 57 | 195 | 0.0 | 0.0 | 0.00 | 0.05 | 0.05 | 98 | 1026.9 |
| 20260831090538 | 57 | 202 | 0.0 | 0.0 | 0.00 | 0.05 | 0.05 | 97 | 1026.7 |
| 20260831090035 | 57 | 183 | 0.0 | 0.0 | 0.00 | 0.05 | 0.05 | 97 | 1026.8 |
| 20260831085530 | 56 | 180 | 0.0 | 0.0 | 0.00 | 0.05 | 0.05 | 97 | 1026.8 |
| 20260831085025 | 57 | 146 | 0.0 | 0.0 | 0.00 | 0.05 | 0.05 | 97 | 1026.4 |
| 20260831084521 | 57 | 130 | 0.0 | 0.0 | 0.00 | 0.05 | 0.05 | 97 | 1026.8 |
| 20260831084017 | 57 | 185 | 0.0 | 0.0 | 0.00 | 0.05 | 0.05 | 96 | 1026.4 |
| 20260831083512 | 57 | 151 | 0.0 | 0.0 | 0.00 | 0.05 | 0.05 | 96 | 1026.3 |
| 20260831083012 | 57 | 151 | 0.0 | 1.0 | 0.00 | 0.05 | 0.05 | 97 | 1026.2 |
| 20260831082506 | 57 | 166 | 0.0 | 0.0 | 0.00 | 0.05 | 0.05 | 96 | 1026.2 |
| 20260831082001 | 57 | 187 | 0.0 | 0.0 | 0.00 | 0.05 | 0.05 | 95 | 1026.4 |
| 20260831081456 | 57 | 195 | 0.0 | 0.0 | 0.00 | 0.05 | 0.05 | 94 | 1026.4 |
| 20260831080952 | 57 | 146 | 0.0 | 0.0 | 0.05 | 0.05 | 0.05 | 95 | 1026.2 |
| 20260831080446 | 57 | 137 | 0.0 | 0.0 | 0.28 | 0.05 | 0.05 | 94 | 1026.4 |
| 20260831075942 | 57 | 28 | 2.0 | 2.0 | 0.28 | 0.05 | 0.05 | 93 | 1026.5 |
| 20260831075438 | 57 | 200 | 0.0 | 0.0 | 0.00 | 0.00 | 0.00 | 93 | 1026.8 |
| 20260831074933 | 57 | 189 | 0.0 | 0.0 | 0.00 | 0.00 | 0.00 | 93 | 1026.5 |
| 20260831074427 | 57 | 190 | 0.0 | 0.0 | 0.00 | 0.00 | 0.00 | 94 | 1026.3 |
| 20260831073921 | 57 | 179 | 0.0 | 0.0 | 0.00 | 0.00 | 0.00 | 94 | 1026.2 |
| 20260831073421 | 57 | 190 | 0.0 | 0.0 | 0.00 | 0.00 | 0.00 | 94 | 1026.3 |
| 20260831072915 | 57 | 178 | 0.0 | 0.0 | 0.00 | 0.00 | 0.00 | 94 | 1026.2 |
| 20260831072411 | 57 | 197 | 0.0 | 0.0 | 0.00 | 0.00 | 0.00 | 93 | 1026.2 |
| 20260831071908 | 57 | 175 | 0.0 | 0.0 | 0.00 | 0.00 | 0.00 | 92 | 1026.3 |
| 20260831071406 | 57 | 94 | 0.0 | 0.0 | 0.00 | 0.00 | 0.00 | 92 | 1026.0 |
| 20260831070901 | 57 | 128 | 0.0 | 0.0 | 0.00 | 0.00 | 0.00 | 93 | 1026.0 |
| 20260831070400 | 57 | 168 | 0.0 | 0.0 | 0.00 | 0.00 | 0.00 | 92 | 1025.9 |
| 20260831065859 | 57 | 133 | 0.0 | 0.0 | 0.00 | 0.00 | 0.00 | 91 | 1025.9 |
| 20260831065357 | 57 | 140 | 0.0 | 1.0 | 0.00 | 0.00 | 0.00 | 95 | 1026.0 |
| 20260831064853 | 57 | 198 | 0.0 | 0.0 | 0.00 | 0.00 | 0.00 | 94 | 1026.3 |
| 20260831064348 | 57 | 170 | 0.0 | 0.0 | 0.00 | 0.00 | 0.00 | 92 | 1025.9 |
| 20260831063844 | 57 | 172 | 0.0 | 0.0 | 0.00 | 0.00 | 0.00 | 93 | 1026.2 |
| 20260831063339 | 57 | 179 | 0.0 | 0.0 | 0.00 | 0.00 | 0.00 | 93 | 1026.0 |
| 20260831062838 | 57 | 144 | 0.0 | 0.0 | 0.00 | 0.00 | 0.00 | 93 | 1026.2 |
| 20260831062334 | 57 | 193 | 0.0 | 1.0 | 0.00 | 0.00 | 0.00 | 90 | 1026.7 |
| 20260831061832 | 57 | 211 | 1.0 | 1.0 | 0.00 | 0.00 | 0.00 | 95 | 1026.4 |
| 20260831061331 | 57 | 157 | 0.0 | 0.0 | 0.00 | 0.00 | 0.00 | 96 | 1026.5 |
| 20260831060828 | 57 | 109 | 0.0 | 1.0 | 0.00 | 0.00 | 0.00 | 96 | 1026.7 |
| 20260831060322 | 57 | 100 | 1.0 | 1.0 | 0.00 | 0.00 | 0.00 | 96 | 1026.4 |
| 20260831055822 | 57 | 178 | 0.0 | 0.0 | 0.00 | 0.08 | 0.08 | 96 | 1026.7 |
| 20260831055317 | 57 | 194 | 0.0 | 0.0 | 0.00 | 0.08 | 0.08 | 96 | 1026.4 |
| 20260831054812 | 57 | 140 | 0.0 | 0.0 | 0.00 | 0.08 | 0.08 | 96 | 1026.3 |
| 20260831054307 | 57 | 178 | 0.0 | 0.0 | 0.00 | 0.08 | 0.08 | 96 | 1026.3 |
| 20260831053806 | 57 | 166 | 0.0 | 0.0 | 0.00 | 0.08 | 0.08 | 97 | 1026.3 |
| 20260831053305 | 57 | 178 | 0.0 | 0.0 | 0.00 | 0.08 | 0.08 | 97 | 1026.7 |
| 20260831052800 | 57 | 159 | 0.0 | 0.0 | 0.00 | 0.08 | 0.08 | 97 | 1026.8 |
| 20260831052259 | 57 | 148 | 0.0 | 0.0 | 0.00 | 0.08 | 0.08 | 97 | 1026.4 |
| 20260831051757 | 57 | 164 | 0.0 | 0.0 | 0.00 | 0.08 | 0.08 | 97 | 1026.8 |
| 20260831051256 | 57 | 163 | 0.0 | 0.0 | 0.00 | 0.08 | 0.08 | 96 | 1026.9 |
| 20260831050751 | 57 | 163 | 0.0 | 0.0 | 0.00 | 0.08 | 0.08 | 96 | 1026.8 |
| 20260831050250 | 57 | 150 | 0.0 | 0.0 | 0.00 | 0.08 | 0.08 | 96 | 1026.7 |
| 20260831045745 | 57 | 190 | 0.0 | 0.0 | 0.00 | 0.08 | 0.08 | 96 | 1026.7 |
| 20260831045244 | 57 | 137 | 0.0 | 0.0 | 0.00 | 0.08 | 0.08 | 96 | 1026.7 |
| 20260831044739 | 57 | 140 | 0.0 | 0.0 | 0.00 | 0.08 | 0.08 | 96 | 1026.7 |
| 20260831044234 | 57 | 167 | 0.0 | 0.0 | 0.00 | 0.08 | 0.08 | 96 | 1026.4 |
| 20260831043730 | 57 | 175 | 0.0 | 0.0 | 0.00 | 0.08 | 0.08 | 96 | 1026.5 |
| 20260831043225 | 57 | 161 | 0.0 | 0.0 | 0.00 | 0.08 | 0.08 | 95 | 1026.5 |
| 20260831042724 | 57 | 139 | 0.0 | 1.0 | 0.00 | 0.08 | 0.08 | 95 | 1026.5 |
| 20260831042220 | 57 | 155 | 0.0 | 0.0 | 0.00 | 0.08 | 0.08 | 95 | 1026.5 |
| 20260831041715 | 57 | 212 | 0.0 | 0.0 | 0.00 | 0.08 | 0.08 | 96 | 1026.9 |
| 20260831041214 | 57 | 167 | 0.0 | 0.0 | 0.00 | 0.08 | 0.08 | 95 | 1026.7 |
| 20260831040709 | 57 | 181 | 0.0 | 0.0 | 0.00 | 0.08 | 0.08 | 94 | 1026.7 |
| 20260831040208 | 57 | 158 | 0.0 | 0.0 | 0.00 | 0.08 | 0.08 | 93 | 1026.7 |
| 20260831035707 | 57 | 194 | 0.0 | 0.0 | 0.00 | 0.08 | 0.08 | 94 | 1026.7 |
| 20260831035202 | 58 | 226 | 0.0 | 1.0 | 0.00 | 0.08 | 0.08 | 94 | 1026.4 |
| 20260831034701 | 58 | 148 | 0.0 | 0.0 | 0.00 | 0.08 | 0.08 | 93 | 1026.5 |
| 20260831034156 | 58 | 165 | 0.0 | 0.0 | 0.00 | 0.08 | 0.08 | 93 | 1026.3 |
| 20260831033651 | 58 | 142 | 0.0 | 0.0 | 0.00 | 0.08 | 0.08 | 93 | 1026.3 |
| 20260831033146 | 58 | 100 | 0.0 | 0.0 | 0.00 | 0.08 | 0.08 | 93 | 1026.2 |
| 20260831032646 | 58 | 229 | 0.0 | 1.0 | 0.00 | 0.08 | 0.08 | 93 | 1026.3 |
| 20260831032142 | 58 | 192 | 0.0 | 0.0 | 0.00 | 0.08 | 0.08 | 92 | 1026.0 |
| 20260831031641 | 59 | 146 | 0.0 | 0.0 | 0.00 | 0.08 | 0.08 | 89 | 1026.5 |
| 20260831031136 | 59 | 144 | 0.0 | 0.0 | 0.00 | 0.08 | 0.08 | 89 | 1026.5 |
| 20260831030634 | 59 | 96 | 1.0 | 1.0 | 0.00 | 0.08 | 0.08 | 88 | 1026.4 |
| 20260831030134 | 59 | 129 | 0.0 | 0.0 | 0.00 | 0.08 | 0.08 | 90 | 1026.3 |
| 20260831025632 | 59 | 147 | 0.0 | 0.0 | 0.00 | 0.08 | 0.08 | 91 | 1026.7 |
| 20260831025127 | 59 | 91 | 1.0 | 1.0 | 0.07 | 0.08 | 0.08 | 91 | 1026.3 |
| 20260831024624 | 60 | 91 | 1.0 | 1.0 | 0.12 | 0.08 | 0.08 | 89 | 1026.7 |
| 20260831024122 | 60 | 166 | 0.0 | 1.0 | 0.17 | 0.07 | 0.07 | 88 | 1026.5 |
| 20260831023620 | 61 | 68 | 1.0 | 1.0 | 0.19 | 0.06 | 0.06 | 89 | 1026.7 |
| 20260831023120 | 62 | 253 | 1.0 | 1.0 | 0.19 | 0.04 | 0.04 | 86 | 1026.8 |
| 20260831022615 | 63 | 162 | 0.0 | 1.0 | 0.26 | 0.04 | 0.04 | 84 | 1026.5 |
| 20260831022110 | 66 | 155 | 1.0 | 2.0 | 0.07 | 0.01 | 0.01 | 74 | 1026.0 |
| 20260831021609 | 68 | 141 | 4.0 | 5.0 | 0.00 | 0.00 | 0.00 | 65 | 1025.3 |
| 20260831021105 | 65 | 193 | 2.0 | 5.0 | 0.00 | 0.00 | 0.00 | 65 | 1024.9 |
| 20260831020600 | 65 | 161 | 0.0 | 0.0 | 0.00 | 0.00 | 0.00 | 69 | 1024.5 |
| 20260831020055 | 66 | 142 | 0.0 | 0.0 | 0.00 | 0.00 | 0.00 | 67 | 1023.8 |
| 20260831015551 | 65 | 135 | 0.0 | 0.0 | 0.00 | 0.00 | 0.00 | 66 | 1023.2 |
| 20260831015045 | 65 | 155 | 0.0 | 0.0 | 0.00 | 0.00 | 0.00 | 68 | 1023.1 |
| 20260831014540 | 65 | 186 | 0.0 | 0.0 | 0.00 | 0.00 | 0.00 | 67 | 1023.4 |
| 20260831014035 | 65 | 141 | 0.0 | 0.0 | 0.00 | 0.00 | 0.00 | 67 | 1022.9 |
| 20260831013531 | 66 | 141 | 0.0 | 0.0 | 0.00 | 0.00 | 0.00 | 67 | 1023.0 |
| 20260831013026 | 66 | 128 | 0.0 | 0.0 | 0.00 | 0.00 | 0.00 | 65 | 1022.8 |
| 20260831012520 | 66 | 161 | 0.0 | 0.0 | 0.00 | 0.00 | 0.00 | 64 | 1022.6 |
| 20260831012020 | 66 | 162 | 0.0 | 0.0 | 0.00 | 0.00 | 0.00 | 64 | 1022.5 |
| 20260831011515 | 67 | 182 | 0.0 | 0.0 | 0.00 | 0.00 | 0.00 | 62 | 1022.6 |
| 20260831011011 | 67 | 7 | 1.0 | 1.0 | 0.00 | 0.00 | 0.00 | 62 | 1022.6 |
| 20260831010510 | 67 | 83 | 0.0 | 1.0 | 0.00 | 0.00 | 0.00 | 60 | 1022.9 |
| 20260831010007 | 67 | 193 | 0.0 | 0.0 | 0.00 | 0.00 | 0.00 | 61 | 1022.8 |
| 20260831005502 | 67 | 56 | 2.0 | 2.0 | 0.00 | 0.00 | 0.00 | 60 | 1022.9 |
| 20260831005001 | 68 | 34 | 2.0 | 2.0 | 0.00 | 0.00 | 0.00 | 60 | 1022.8 |
| 20260831004458 | 68 | 90 | 0.0 | 0.0 | 0.00 | 0.00 | 0.00 | 61 | 1023.0 |
| 20260831003953 | 68 | 144 | 0.0 | 0.0 | 0.00 | 0.00 | 0.00 | 60 | 1022.9 |
| 20260831003449 | 69 | 125 | 3.0 | 3.0 | 0.00 | 0.00 | 0.00 | 58 | 1022.9 |
| 20260831002949 | 69 | 184 | 1.0 | 1.0 | 0.00 | 0.00 | 0.00 | 59 | 1023.1 |
| 20260831002448 | 69 | 148 | 0.0 | 0.0 | 0.00 | 0.00 | 0.00 | 59 | 1023.4 |
| 20260831001944 | 70 | 152 | 0.0 | 0.0 | 0.00 | 0.00 | 0.00 | 57 | 1023.1 |
| 20260831001439 | 72 | 175 | 0.0 | 0.0 | 0.00 | 0.00 | 0.00 | 53 | 1023.2 |
| 20260831000936 | 72 | 163 | 0.0 | 1.0 | 0.00 | 0.00 | 0.00 | 51 | 1023.0 |
| 20260831000432 | 72 | 211 | 0.0 | 1.0 | 0.00 | 0.00 | 0.00 | 48 | 1022.9 |
| 20260830235929 | 71 | 164 | 0.0 | 0.0 | 0.00 | 0.00 | 0.00 | 48 | 1022.9 |
| 20260830235425 | 71 | 69 | 1.0 | 1.0 | 0.00 | 0.00 | 0.00 | 48 | 1023.1 |
| 20260830234920 | 71 | 41 | 1.0 | 1.0 | 0.00 | 0.00 | 0.00 | 49 | 1022.9 |
| 20260830234415 | 70 | 223 | 2.0 | 3.0 | 0.00 | 0.00 | 0.00 | 50 | 1023.0 |
| 20260830233911 | 70 | 60 | 3.0 | 5.0 | 0.00 | 0.00 | 0.00 | 53 | 1023.0 |
| 20260830233406 | 70 | 83 | 4.0 | 6.0 | 0.00 | 0.00 | 0.00 | 53 | 1023.1 |
| 20260830232901 | 71 | 60 | 3.0 | 3.0 | 0.00 | 0.00 | 0.00 | 52 | 1023.2 |
| 20260830232357 | 73 | 156 | 1.0 | 2.0 | 0.00 | 0.00 | 0.00 | 47 | 1023.1 |
| 20260830231854 | 73 | 38 | 0.0 | 2.0 | 0.00 | 0.00 | 0.00 | 45 | 1023.0 |
| 20260830231348 | 73 | 70 | 3.0 | 5.0 | 0.00 | 0.00 | 0.00 | 44 | 1022.9 |
| 20260830230847 | 73 | 11 | 4.0 | 8.0 | 0.00 | 0.00 | 0.00 | 43 | 1022.5 |
| 20260830230343 | 74 | 139 | 2.0 | 2.0 | 0.00 | 0.00 | 0.00 | 44 | 1022.5 |
| 20260830225842 | 76 | 221 | 9.0 | 14.0 | 0.00 | 0.00 | 0.00 | 41 | 1022.4 |
| 20260830225338 | 82 | 160 | 1.0 | 1.0 | 0.00 | 0.00 | 0.00 | 36 | 1022.3 |
| 20260830224832 | 83 | 197 | 1.0 | 1.0 | 0.00 | 0.00 | 0.00 | 37 | 1021.0 |
| 20260830224321 | 81 | 207 | 0.0 | 0.0 | 0.00 | 0.00 | 0.00 | 43 | 1021.3 |
| 20260830223818 | 82 | 239 | 1.0 | 1.0 | 0.00 | 0.00 | 0.00 | 38 | 1021.3 |
| 20260830223314 | 82 | 200 | 0.0 | 0.0 | 0.00 | 0.00 | 0.00 | 41 | 1021.2 |
| 20260830222807 | 82 | 152 | 0.0 | 0.0 | 0.00 | 0.00 | 0.00 | 36 | 1020.9 |
| 20260830222306 | 82 | 152 | 0.0 | 0.0 | 0.00 | 0.00 | 0.00 | 38 | 1021.3 |
| 20260830221758 | 81 | 134 | 1.0 | 1.0 | 0.00 | 0.00 | 0.00 | 38 | 1021.2 |
| 20260830221255 | 82 | 289 | 1.0 | 1.0 | 0.00 | 0.00 | 0.00 | 43 | 1021.4 |
| 20260830220750 | 84 | 102 | 1.0 | 1.0 | 0.00 | 0.00 | 0.00 | 39 | 1021.4 |
| 20260830220249 | 84 | 208 | 2.0 | 2.0 | 0.00 | 0.00 | 0.00 | 34 | 1021.5 |
| 20260830215747 | 86 | 141 | 1.0 | 2.0 | 0.00 | 0.00 | 0.00 | 36 | 1021.3 |
| 20260830215242 | 86 | 207 | 1.0 | 2.0 | 0.00 | 0.00 | 0.00 | 36 | 1021.3 |
| 20260830214737 | 87 | 241 | 0.0 | 1.0 | 0.00 | 0.00 | 0.00 | 34 | 1021.9 |
| 20260830214237 | 87 | 138 | 0.0 | 1.0 | 0.00 | 0.00 | 0.00 | 37 | 1021.8 |
| 20260830213736 | 86 | 209 | 1.0 | 1.0 | 0.00 | 0.00 | 0.00 | 34 | 1021.8 |
| 20260830213231 | 86 | 171 | 1.0 | 1.0 | 0.00 | 0.00 | 0.00 | 36 | 1021.9 |
| 20260830212727 | 86 | 197 | 2.0 | 2.0 | 0.00 | 0.00 | 0.00 | 34 | 1022.1 |
| 20260830212223 | 86 | 184 | 1.0 | 2.0 | 0.00 | 0.00 | 0.00 | 35 | 1022.5 |
| 20260830211718 | 87 | 100 | 0.0 | 2.0 | 0.00 | 0.00 | 0.00 | 34 | 1022.0 |
| 20260830211216 | 85 | 173 | 2.0 | 2.0 | 0.00 | 0.00 | 0.00 | 34 | 1022.1 |
| 20260830210713 | 84 | 171 | 1.0 | 1.0 | 0.00 | 0.00 | 0.00 | 36 | 1022.0 |
| 20260830210212 | 84 | 217 | 0.0 | 1.0 | 0.00 | 0.00 | 0.00 | 34 | 1022.4 |
| 20260830205709 | 84 | 237 | 2.0 | 2.0 | 0.00 | 0.00 | 0.00 | 35 | 1022.0 |
| 20260830205204 | 85 | 249 | 1.0 | 1.0 | 0.00 | 0.00 | 0.00 | 37 | 1022.5 |
| 20260830204704 | 85 | 259 | 1.0 | 3.0 | 0.00 | 0.00 | 0.00 | 37 | 1022.5 |
| 20260830204203 | 85 | 118 | 1.0 | 1.0 | 0.00 | 0.00 | 0.00 | 38 | 1022.5 |
| 20260830203700 | 85 | 248 | 1.0 | 1.0 | 0.00 | 0.00 | 0.00 | 40 | 1022.9 |
| 20260830203155 | 84 | 187 | 0.0 | 1.0 | 0.00 | 0.00 | 0.00 | 38 | 1023.0 |
| 20260830202654 | 84 | 272 | 1.0 | 2.0 | 0.00 | 0.00 | 0.00 | 38 | 1023.1 |
| 20260830202150 | 84 | 164 | 1.0 | 1.0 | 0.00 | 0.00 | 0.00 | 37 | 1023.0 |
| 20260830201649 | 84 | 180 | 1.0 | 2.0 | 0.00 | 0.00 | 0.00 | 37 | 1023.1 |
| 20260830201144 | 83 | 171 | 1.0 | 1.0 | 0.00 | 0.00 | 0.00 | 41 | 1023.4 |
| 20260830200634 | 81 | 166 | 0.0 | 0.0 | 0.00 | 0.00 | 0.00 | 43 | 1023.4 |
| 20260830200133 | 79 | 189 | 0.0 | 0.0 | 0.00 | 0.00 | 0.00 | 44 | 1023.6 |
| 20260830195629 | 80 | 81 | 0.0 | 0.0 | 0.00 | 0.00 | 0.00 | 45 | 1023.7 |
| 20260830195127 | 80 | 151 | 1.0 | 1.0 | 0.00 | 0.00 | 0.00 | 43 | 1023.5 |
| 20260830194626 | 77 | 53 | 1.0 | 1.0 | 0.00 | 0.00 | 0.00 | 51 | 1023.8 |
| 20260830194121 | 76 | 164 | 0.0 | 0.0 | 0.00 | 0.00 | 0.00 | 56 | 1023.8 |
| 20260830193621 | 76 | 195 | 0.0 | 0.0 | 0.00 | 0.00 | 0.00 | 50 | 1024.0 |
| 20260830193115 | 77 | 211 | 0.0 | 0.0 | 0.00 | 0.00 | 0.00 | 51 | 1024.2 |
| 20260830192611 | 78 | 201 | 1.0 | 1.0 | 0.00 | 0.00 | 0.00 | 46 | 1024.0 |
| 20260830192111 | 79 | 160 | 2.0 | 2.0 | 0.00 | 0.00 | 0.00 | 44 | 1024.1 |
| 20260830191606 | 77 | 152 | 0.0 | 1.0 | 0.00 | 0.00 | 0.00 | 49 | 1024.1 |
| 20260830191102 | 76 | 145 | 0.0 | 0.0 | 0.00 | 0.00 | 0.00 | 48 | 1024.2 |
| 20260830190557 | 77 | 225 | 2.0 | 2.0 | 0.00 | 0.00 | 0.00 | 49 | 1024.7 |
| 20260830190052 | 77 | 203 | 0.0 | 0.0 | 0.00 | 0.00 | 0.00 | 50 | 1024.6 |
| 20260830185545 | 77 | 94 | 0.0 | 0.0 | 0.00 | 0.00 | 0.00 | 48 | 1024.7 |
| 20260830185041 | 76 | 285 | 0.0 | 1.0 | 0.00 | 0.00 | 0.00 | 53 | 1024.9 |
| 20260830184540 | 76 | 247 | 1.0 | 2.0 | 0.00 | 0.00 | 0.00 | 50 | 1025.1 |
| 20260830184034 | 76 | 120 | 1.0 | 1.0 | 0.00 | 0.00 | 0.00 | 48 | 1025.2 |
| 20260830183529 | 76 | 237 | 4.0 | 5.0 | 0.00 | 0.00 | 0.00 | 47 | 1024.9 |
| 20260830183025 | 76 | 122 | 1.0 | 1.0 | 0.00 | 0.00 | 0.00 | 52 | 1025.1 |
| 20260830182520 | 74 | 92 | 0.0 | 1.0 | 0.00 | 0.00 | 0.00 | 54 | 1025.2 |
| 20260830182016 | 73 | 118 | 0.0 | 1.0 | 0.00 | 0.00 | 0.00 | 56 | 1025.6 |
| 20260830181512 | 72 | 144 | 0.0 | 0.0 | 0.00 | 0.00 | 0.00 | 59 | 1025.6 |
| 20260830181011 | 72 | 156 | 0.0 | 0.0 | 0.00 | 0.00 | 0.00 | 59 | 1025.6 |
| 20260830180506 | 72 | 149 | 0.0 | 0.0 | 0.00 | 0.00 | 0.00 | 57 | 1025.6 |
| 20260830180004 | 72 | 144 | 0.0 | 2.0 | 0.00 | 0.00 | 0.00 | 57 | 1025.6 |
| 20260830175459 | 71 | 173 | 0.0 | 0.0 | 0.00 | 0.00 | 0.00 | 63 | 1026.0 |
| 20260830174954 | 71 | 125 | 0.0 | 0.0 | 0.00 | 0.00 | 0.00 | 60 | 1025.8 |
| 20260830174450 | 70 | 112 | 0.0 | 0.0 | 0.00 | 0.00 | 0.00 | 61 | 1026.0 |
| 20260830173949 | 70 | 159 | 0.0 | 1.0 | 0.00 | 0.00 | 0.00 | 61 | 1025.9 |
| 20260830173446 | 69 | 160 | 0.0 | 0.0 | 0.00 | 0.00 | 0.00 | 63 | 1025.8 |
| 20260830172941 | 69 | 251 | 1.0 | 2.0 | 0.00 | 0.00 | 0.00 | 62 | 1026.0 |
| 20260830172437 | 69 | 199 | 0.0 | 0.0 | 0.00 | 0.00 | 0.00 | 62 | 1026.0 |
| 20260830171933 | 68 | 90 | 0.0 | 0.0 | 0.00 | 0.00 | 0.00 | 67 | 1026.2 |
| 20260830171428 | 68 | 160 | 0.0 | 0.0 | 0.00 | 0.00 | 0.00 | 67 | 1026.2 |
| 20260830170923 | 68 | 126 | 0.0 | 0.0 | 0.00 | 0.00 | 0.00 | 63 | 1026.4 |
| 20260830170422 | 68 | 147 | 0.0 | 0.0 | 0.00 | 0.00 | 0.00 | 62 | 1026.5 |
| 20260830165920 | 68 | 159 | 0.0 | 0.0 | 0.00 | 0.00 | 0.00 | 64 | 1026.3 |
| 20260830165417 | 68 | 165 | 0.0 | 0.0 | 0.00 | 0.00 | 0.00 | 65 | 1026.0 |
| 20260830164913 | 68 | 158 | 1.0 | 1.0 | 0.00 | 0.00 | 0.00 | 66 | 1026.2 |
| 20260830164408 | 68 | 174 | 0.0 | 0.0 | 0.00 | 0.00 | 0.00 | 67 | 1026.3 |
| 20260830163905 | 68 | 164 | 0.0 | 0.0 | 0.00 | 0.00 | 0.00 | 69 | 1025.8 |
| 20260830163401 | 67 | 219 | 0.0 | 1.0 | 0.00 | 0.00 | 0.00 | 69 | 1026.0 |
| 20260830162900 | 67 | 150 | 0.0 | 1.0 | 0.00 | 0.00 | 0.00 | 70 | 1026.2 |
| 20260830162356 | 67 | 203 | 1.0 | 2.0 | 0.00 | 0.00 | 0.00 | 67 | 1026.3 |
| 20260830161851 | 67 | 168 | 0.0 | 1.0 | 0.00 | 0.00 | 0.00 | 67 | 1026.2 |
| 20260830161350 | 67 | 198 | 0.0 | 1.0 | 0.00 | 0.00 | 0.00 | 65 | 1025.9 |
| 20260830160846 | 67 | 238 | 0.0 | 1.0 | 0.00 | 0.00 | 0.00 | 69 | 1025.9 |
| 20260830160342 | 66 | 183 | 0.0 | 0.0 | 0.00 | 0.00 | 0.00 | 64 | 1025.8 |
| 20260830155837 | 66 | 150 | 0.0 | 0.0 | 0.00 | 0.00 | 0.00 | 68 | 1025.7 |
| 20260830155333 | 66 | 229 | 0.0 | 0.0 | 0.00 | 0.00 | 0.00 | 69 | 1025.9 |
| 20260830154833 | 66 | 181 | 0.0 | 0.0 | 0.00 | 0.00 | 0.00 | 70 | 1025.8 |
| 20260830154330 | 65 | 135 | 0.0 | 0.0 | 0.00 | 0.00 | 0.00 | 70 | 1025.8 |
| 20260830153826 | 65 | 113 | 1.0 | 1.0 | 0.00 | 0.00 | 0.00 | 71 | 1025.9 |
| 20260830153321 | 65 | 164 | 0.0 | 0.0 | 0.00 | 0.00 | 0.00 | 70 | 1025.8 |
| 20260830152819 | 65 | 164 | 0.0 | 0.0 | 0.00 | 0.00 | 0.00 | 70 | 1025.6 |
| 20260830152314 | 64 | 144 | 0.0 | 0.0 | 0.00 | 0.00 | 0.00 | 71 | 1026.0 |
| 20260830151809 | 64 | 141 | 0.0 | 0.0 | 0.00 | 0.00 | 0.00 | 71 | 1025.8 |
| 20260830151308 | 63 | 144 | 0.0 | 0.0 | 0.00 | 0.00 | 0.00 | 72 | 1025.9 |
| 20260830150803 | 63 | 149 | 0.0 | 0.0 | 0.00 | 0.00 | 0.00 | 74 | 1025.8 |
| 20260830150302 | 62 | 106 | 1.0 | 1.0 | 0.00 | 0.00 | 0.00 | 73 | 1026.0 |
| 20260830145757 | 62 | 142 | 0.0 | 0.0 | 0.00 | 0.00 | 0.00 | 75 | 1025.9 |
| 20260830145252 | 61 | 136 | 0.0 | 0.0 | 0.00 | 0.00 | 0.00 | 78 | 1025.8 |
| 20260830144748 | 60 | 135 | 0.0 | 0.0 | 0.00 | 0.00 | 0.00 | 82 | 1026.0 |
| 20260830144243 | 60 | 86 | 1.0 | 1.0 | 0.00 | 0.00 | 0.00 | 82 | 1026.0 |
| 20260830143739 | 60 | 106 | 1.0 | 1.0 | 0.00 | 0.00 | 0.00 | 86 | 1025.8 |
| 20260830143238 | 60 | 96 | 1.0 | 1.0 | 0.00 | 0.00 | 0.00 | 81 | 1026.2 |
| 20260830142733 | 60 | 172 | 0.0 | 0.0 | 0.00 | 0.00 | 0.00 | 83 | 1025.9 |
| 20260830142228 | 60 | 174 | 0.0 | 0.0 | 0.00 | 0.00 | 0.00 | 82 | 1025.9 |
| 20260830141723 | 61 | 160 | 0.0 | 0.0 | 0.00 | 0.00 | 0.00 | 80 | 1026.0 |
| 20260830141213 | 61 | 159 | 0.0 | 0.0 | 0.00 | 0.00 | 0.00 | 75 | 1026.2 |
| 20260830140707 | 61 | 139 | 0.0 | 0.0 | 0.00 | 0.00 | 0.00 | 74 | 1026.0 |
| 20260830140202 | 61 | 211 | 0.0 | 1.0 | 0.00 | 0.00 | 0.00 | 75 | 1026.0 |
| 20260830135657 | 60 | 93 | 1.0 | 1.0 | 0.00 | 0.00 | 0.00 | 74 | 1025.9 |
| 20260830135153 | 59 | 169 | 0.0 | 0.0 | 0.00 | 0.00 | 0.00 | 81 | 1026.0 |
| 20260830134649 | 58 | 177 | 0.0 | 0.0 | 0.00 | 0.00 | 0.00 | 83 | 1025.8 |
| 20260830134143 | 57 | 168 | 0.0 | 0.0 | 0.00 | 0.00 | 0.00 | 84 | 1025.8 |
| 20260830133639 | 57 | 168 | 0.0 | 0.0 | 0.00 | 0.00 | 0.00 | 87 | 1025.9 |
| 20260830133134 | 56 | 140 | 0.0 | 0.0 | 0.00 | 0.00 | 0.00 | 88 | 1025.9 |
| 20260830132630 | 56 | 139 | 0.0 | 0.0 | 0.00 | 0.00 | 0.00 | 89 | 1025.9 |
| 20260830132126 | 55 | 148 | 0.0 | 0.0 | 0.00 | 0.00 | 0.00 | 90 | 1025.7 |
| 20260830131625 | 55 | 163 | 0.0 | 0.0 | 0.00 | 0.00 | 0.00 | 91 | 1025.8 |
| 20260830131119 | 55 | 160 | 0.0 | 0.0 | 0.00 | 0.00 | 0.00 | 91 | 1025.8 |
| 20260830130614 | 54 | 155 | 0.0 | 0.0 | 0.00 | 0.00 | 0.00 | 91 | 1025.7 |
| 20260830130109 | 54 | 184 | 0.0 | 0.0 | 0.00 | 0.00 | 0.00 | 91 | 1025.7 |
| 20260830125603 | 54 | 138 | 0.0 | 0.0 | 0.00 | 0.00 | 0.00 | 90 | 1026.0 |
| 20260830125102 | 55 | 142 | 0.0 | 0.0 | 0.00 | 0.00 | 0.00 | 90 | 1025.7 |
| 20260830124601 | 55 | 142 | 0.0 | 0.0 | 0.00 | 0.00 | 0.00 | 90 | 1025.8 |
| 20260830124057 | 55 | 142 | 0.0 | 0.0 | 0.00 | 0.00 | 0.00 | 91 | 1025.4 |
| 20260830123554 | 55 | 112 | 0.0 | 1.0 | 0.00 | 0.00 | 0.00 | 90 | 1025.3 |
| 20260830123049 | 55 | 201 | 0.0 | 0.0 | 0.00 | 0.00 | 0.00 | 90 | 1025.4 |
| 20260830122546 | 55 | 135 | 0.0 | 0.0 | 0.00 | 0.00 | 0.00 | 90 | 1025.6 |
| 20260830122041 | 55 | 131 | 0.0 | 0.0 | 0.00 | 0.00 | 0.00 | 91 | 1025.6 |
| 20260830121537 | 55 | 123 | 0.0 | 0.0 | 0.00 | 0.00 | 0.00 | 91 | 1025.6 |
| 20260830121036 | 55 | 170 | 0.0 | 0.0 | 0.00 | 0.00 | 0.00 | 89 | 1025.7 |
| 20260830120532 | 54 | 196 | 0.0 | 0.0 | 0.00 | 0.00 | 0.00 | 90 | 1025.4 |
| 20260830120029 | 54 | 160 | 0.0 | 0.0 | 0.00 | 0.00 | 0.00 | 90 | 1025.4 |
| 20260830115524 | 54 | 160 | 0.0 | 0.0 | 0.00 | 0.00 | 0.00 | 90 | 1025.4 |
| 20260830115019 | 54 | 160 | 0.0 | 0.0 | 0.00 | 0.00 | 0.00 | 90 | 1025.6 |
| 20260830114516 | 54 | 160 | 0.0 | 0.0 | 0.00 | 0.00 | 0.00 | 90 | 1025.3 |
| 20260830114015 | 55 | 141 | 0.0 | 0.0 | 0.00 | 0.00 | 0.00 | 89 | 1025.4 |
| 20260830113510 | 55 | 143 | 0.0 | 0.0 | 0.00 | 0.00 | 0.00 | 89 | 1025.2 |
| 20260830113005 | 55 | 167 | 0.0 | 0.0 | 0.00 | 0.00 | 0.00 | 89 | 1025.3 |
| 20260830112501 | 55 | 166 | 0.0 | 0.0 | 0.00 | 0.00 | 0.00 | 89 | 1025.2 |
| 20260830111957 | 55 | 166 | 0.0 | 0.0 | 0.00 | 0.00 | 0.00 | 88 | 1025.2 |
| 20260830111453 | 55 | 166 | 0.0 | 0.0 | 0.00 | 0.00 | 0.00 | 88 | 1025.3 |
| 20260830110949 | 55 | 128 | 0.0 | 0.0 | 0.00 | 0.00 | 0.00 | 89 | 1025.3 |
| 20260830110443 | 55 | 149 | 0.0 | 0.0 | 0.00 | 0.00 | 0.00 | 89 | 1025.8 |
| 20260830105943 | 55 | 149 | 0.0 | 0.0 | 0.00 | 0.00 | 0.00 | 88 | 1025.6 |
| 20260830105439 | 55 | 141 | 0.0 | 0.0 | 0.00 | 0.00 | 0.00 | 88 | 1025.3 |
| 20260830104935 | 55 | 142 | 0.0 | 0.0 | 0.00 | 0.00 | 0.00 | 88 | 1025.2 |
| 20260830104431 | 55 | 133 | 0.0 | 0.0 | 0.00 | 0.00 | 0.00 | 89 | 1025.3 |
| 20260830103926 | 55 | 130 | 0.0 | 0.0 | 0.00 | 0.00 | 0.00 | 89 | 1025.4 |
| 20260830103422 | 55 | 191 | 0.0 | 0.0 | 0.00 | 0.00 | 0.00 | 87 | 1025.3 |